User: anonymous
Location: Unspecified
(0.0000°N, 0.0000°E)
Time: 06:14:08
(UTC+00:00)
Language:

ASTRA 1KR - Orbit

View from above orbital plane
View from above orbital plane
View from above satellite
View from above satellite

Ground track
Ground track

The orbit data is extracted from the following two-line orbital elements,

1 29055U 06012A   14207.78031101  .00000105  00000-0  00000+0 0   991
2 29055 000.0846 300.1793 0001076 234.5005 069.7895 01.00273012 30314
Epoch (UTC): 26 July 2014 18:43:38
Eccentricity: 0.0001076
inclination: 0.0846°
perigee height: 35781 km
apogee height: 35790 km
right ascension of ascending node: 300.1793°
argument of perigee: 234.5005°
revolutions per day: 1.00273012
mean anomaly at epoch: 69.7895°
orbit number at epoch: 3031

The dashed part of the orbit path shows where the satellite is in the earth's shadow,  

DLR